NATO403 EGUL-EGUL

Flight info

Callsign NATO403
Flight time 0h 35m
Altitude 17000
Route OAT V LKH DCT MAM DCT EA1 DCT LAKENHEATH NORTH ATA STAY1/0030 DCT EA1 DCT MAM DCT LKH
Aircraft F15/M-SDGHILM1M3RTUY/L

Departure

Time 2026-04-19 23:07
Airport RAF Lakenheath (EGUL)

Arrival

Time 2026-04-19 23:42
Airport RAF Lakenheath (EGUL)
Time Latitude Longitude Altitude Speed Heading
2026-04-19 22:55 52.40005 0.55544 35 ft 0 kts 351°
2026-04-19 23:00 52.40006 0.55544 35 ft 1 kts 351°
2026-04-19 23:00 52.40033 0.55546 36 ft 4 kts 52°
2026-04-19 23:01 52.40045 0.55613 37 ft 9 kts 81°
2026-04-19 23:01 52.40056 0.55732 38 ft 13 kts 81°
2026-04-19 23:01 52.40074 0.55914 39 ft 20 kts 81°
2026-04-19 23:01 52.40098 0.56169 42 ft 25 kts 81°
2026-04-19 23:02 52.40123 0.56424 43 ft 21 kts 81°
2026-04-19 23:02 52.40144 0.56638 43 ft 17 kts 80°
2026-04-19 23:02 52.40162 0.56814 43 ft 14 kts 81°
2026-04-19 23:02 52.40177 0.56989 44 ft 17 kts 81°
2026-04-19 23:03 52.40207 0.57151 47 ft 13 kts 50°
2026-04-19 23:03 52.40296 0.57257 50 ft 17 kts 33°
2026-04-19 23:03 52.40417 0.57341 50 ft 20 kts 14°
2026-04-19 23:03 52.40567 0.57407 45 ft 25 kts 15°
2026-04-19 23:04 52.40740 0.57481 46 ft 23 kts 14°
2026-04-19 23:04 52.40874 0.57541 51 ft 17 kts 15°
2026-04-19 23:04 52.41006 0.57599 50 ft 23 kts 14°
2026-04-19 23:04 52.41184 0.57676 45 ft 28 kts 15°
2026-04-19 23:05 52.41367 0.57756 38 ft 26 kts 15°
2026-04-19 23:05 52.41503 0.57816 36 ft 11 kts 14°
2026-04-19 23:05 52.41579 0.57800 37 ft 13 kts 328°
2026-04-19 23:05 52.41610 0.57705 38 ft 8 kts 241°
2026-04-19 23:06 52.41600 0.57681 38 ft 0 kts 235°
2026-04-19 23:06 52.41482 0.57398 38 ft 94 kts 236°
2026-04-19 23:06 52.40870 0.55929 85 ft 211 kts 236°
2026-04-19 23:06 52.39780 0.53349 550 ft 339 kts 235°
2026-04-19 23:07 52.39925 0.49806 3024 ft 332 kts 321°
2026-04-19 23:07 52.41676 0.47495 7556 ft 341 kts 321°
2026-04-19 23:07 52.43672 0.44969 9643 ft 397 kts 323°
2026-04-19 23:07 52.45927 0.42223 10505 ft 440 kts 324°
2026-04-19 23:08 52.48657 0.39948 11249 ft 446 kts 344°
2026-04-19 23:08 52.51745 0.39404 12014 ft 452 kts
2026-04-19 23:08 52.54901 0.40738 12788 ft 520 kts 24°
2026-04-19 23:08 52.58005 0.43944 13556 ft 530 kts 41°
2026-04-19 23:09 52.60617 0.48322 14312 ft 540 kts 52°
2026-04-19 23:09 52.62470 0.53697 15069 ft 545 kts 69°
2026-04-19 23:09 52.63581 0.59697 15811 ft 552 kts 75°
2026-04-19 23:09 52.64498 0.65882 16439 ft 559 kts 77°
2026-04-19 23:10 52.65363 0.72138 16731 ft 562 kts 77°
2026-04-19 23:10 52.66184 0.78204 16861 ft 563 kts 77°
2026-04-19 23:10 52.67037 0.84513 16929 ft 564 kts 77°
2026-04-19 23:10 52.67895 0.90817 16963 ft 564 kts 77°
2026-04-19 23:11 52.68752 0.97033 16976 ft 564 kts 77°
2026-04-19 23:11 52.69634 1.03338 16990 ft 564 kts 77°
2026-04-19 23:11 52.70530 1.09636 16995 ft 564 kts 76°
2026-04-19 23:11 52.71443 1.15913 16998 ft 564 kts 76°
2026-04-19 23:12 52.72383 1.22198 16999 ft 564 kts 76°
2026-04-19 23:12 52.73006 1.28586 17005 ft 564 kts 89°
2026-04-19 23:12 52.72658 1.35025 17005 ft 564 kts 99°
2026-04-19 23:12 52.71942 1.41385 17001 ft 564 kts 101°
2026-04-19 23:13 52.71140 1.47715 16999 ft 564 kts 102°
2026-04-19 23:13 52.70313 1.54037 16998 ft 564 kts 102°
2026-04-19 23:13 52.69478 1.60369 16998 ft 564 kts 102°
2026-04-19 23:13 52.68647 1.66686 16997 ft 564 kts 102°
2026-04-19 23:14 52.67819 1.73003 16999 ft 564 kts 102°
2026-04-19 23:14 52.67008 1.79237 16998 ft 564 kts 102°
2026-04-19 23:14 52.66183 1.85604 17030 ft 598 kts 102°
2026-04-19 23:14 52.65430 1.92240 15102 ft 512 kts 94°
2026-04-19 23:15 52.65317 1.98317 9622 ft 554 kts 91°
2026-04-19 23:15 52.65595 2.04065 9522 ft 473 kts 38°
2026-04-19 23:15 52.67921 2.07315 9672 ft 412 kts 58°
2026-04-19 23:15 52.68518 2.11546 9582 ft 378 kts 101°
2026-04-19 23:16 52.67669 2.15428 10571 ft 330 kts 116°
2026-04-19 23:16 52.66818 2.19057 13773 ft 395 kts 103°
2026-04-19 23:16 52.66163 2.23967 13767 ft 482 kts 89°
2026-04-19 23:16 52.68041 2.24101 13567 ft 523 kts 239°
2026-04-19 23:17 52.66076 2.26532 13579 ft 538 kts 103°
2026-04-19 23:17 52.64082 2.29945 13679 ft 524 kts 239°
2026-04-19 23:17 52.65204 2.29724 13479 ft 513 kts 105°
2026-04-19 23:17 52.64339 2.35563 13689 ft 533 kts 102°
2026-04-19 23:18 52.62824 2.41054 13713 ft 529 kts 121°
2026-04-19 23:18 52.61118 2.46079 14862 ft 504 kts 122°
2026-04-19 23:18 52.59485 2.50976 16080 ft 405 kts 47°
2026-04-19 23:18 52.60622 2.49412 16676 ft 385 kts 248°
2026-04-19 23:19 52.59492 2.45036 15171 ft 437 kts 246°
2026-04-19 23:19 52.58243 2.40310 15016 ft 478 kts 246°
2026-04-19 23:19 52.56350 2.36544 17236 ft 469 kts 139°
2026-04-19 23:19 52.56595 2.41003 13002 ft 491 kts 67°
2026-04-19 23:20 52.57917 2.46170 12939 ft 521 kts 67°
2026-04-19 23:20 52.60141 2.49926 13971 ft 510 kts 324°
2026-04-19 23:20 52.60082 2.44671 11037 ft 506 kts 248°
2026-04-19 23:20 52.58605 2.39855 11743 ft 465 kts 207°
2026-04-19 23:21 52.57093 2.35138 9841 ft 506 kts 248°
2026-04-19 23:21 52.55943 2.29855 9743 ft 481 kts 268°
2026-04-19 23:21 52.56341 2.26283 9780 ft 469 kts 286°
2026-04-19 23:21 52.57538 2.19667 12092 ft 429 kts 283°
2026-04-19 23:22 52.58048 2.16418 12222 ft 461 kts 286°
2026-04-19 23:22 52.58990 2.11168 12247 ft 494 kts 286°
2026-04-19 23:22 52.59577 2.07914 19449 ft 99 kts 106°
2026-04-19 23:22 52.59128 2.10424 17882 ft 48 kts 286°
2026-04-19 23:23 52.59861 2.06313 11325 ft 508 kts 286°
2026-04-19 23:23 52.60788 2.01084 11635 ft 453 kts 286°
2026-04-19 23:23 52.61129 1.99164 21018 ft 209 kts 106°
2026-04-19 23:23 52.60337 2.02961 19810 ft 357 kts 120°
2026-04-19 23:24 52.58917 2.07582 16077 ft 476 kts 116°
2026-04-19 23:24 52.57522 2.12261 15983 ft 441 kts 116°
2026-04-19 23:24 52.56179 2.16778 16444 ft 424 kts 115°
2026-04-19 23:24 52.56227 2.16737 23765 ft 370 kts 294°
2026-04-19 23:25 52.57068 2.12457 23743 ft 405 kts 287°
2026-04-19 23:25 52.57857 2.08161 23752 ft 385 kts 286°
2026-04-19 23:25 52.58173 2.06166 16543 ft 284 kts 91°
2026-04-19 23:25 52.58197 2.12099 10911 ft 553 kts 89°
2026-04-19 23:26 52.58237 2.17862 10983 ft 466 kts 89°
2026-04-19 23:26 52.58452 2.22839 11657 ft 420 kts 76°
2026-04-19 23:26 52.59803 2.27938 12334 ft 528 kts 57°
2026-04-19 23:26 52.62223 2.32440 12948 ft 529 kts 39°
2026-04-19 23:27 52.65404 2.35514 13555 ft 534 kts 20°
2026-04-19 23:27 52.69027 2.36838 14168 ft 538 kts
2026-04-19 23:27 52.72749 2.36296 14783 ft 542 kts 346°
2026-04-19 23:27 52.76253 2.33953 15400 ft 546 kts 329°
2026-04-19 23:28 52.79214 2.30019 16017 ft 550 kts 312°
2026-04-19 23:28 52.81403 2.24807 16494 ft 557 kts 296°
2026-04-19 23:28 52.82640 2.18745 16724 ft 557 kts 280°
2026-04-19 23:28 52.82802 2.12340 16852 ft 559 kts 265°
2026-04-19 23:29 52.82278 2.05982 16978 ft 560 kts 261°
2026-04-19 23:29 52.81594 1.99636 17014 ft 561 kts 259°
2026-04-19 23:29 52.80872 1.93397 17016 ft 560 kts 259°
2026-04-19 23:29 52.80127 1.87067 17015 ft 560 kts 259°
2026-04-19 23:30 52.79393 1.80839 17008 ft 560 kts 259°
2026-04-19 23:30 52.78655 1.74522 17007 ft 560 kts 259°
2026-04-19 23:30 52.77928 1.68204 17002 ft 560 kts 259°
2026-04-19 23:30 52.77211 1.61865 17000 ft 560 kts 259°
2026-04-19 23:31 52.76511 1.55539 17001 ft 560 kts 260°
2026-04-19 23:31 52.75832 1.49209 17000 ft 560 kts 260°
2026-04-19 23:31 52.75133 1.42872 17001 ft 560 kts 259°
2026-04-19 23:31 52.74373 1.36562 16756 ft 562 kts 258°
2026-04-19 23:32 52.73637 1.30635 16025 ft 496 kts 258°
2026-04-19 23:32 52.72979 1.25375 15265 ft 434 kts 258°
2026-04-19 23:32 52.72376 1.20546 14508 ft 428 kts 258°
2026-04-19 23:32 52.71789 1.15832 13763 ft 422 kts 258°
2026-04-19 23:33 52.71202 1.11103 13009 ft 417 kts 258°
2026-04-19 23:33 52.70627 1.06442 12256 ft 413 kts 258°
2026-04-19 23:33 52.70062 1.01837 11504 ft 408 kts 258°
2026-04-19 23:33 52.69504 0.97265 10750 ft 404 kts 258°
2026-04-19 23:34 52.68957 0.92759 10001 ft 400 kts 259°
2026-04-19 23:34 52.68419 0.88294 9240 ft 395 kts 259°
2026-04-19 23:34 52.67889 0.83878 8497 ft 391 kts 259°
2026-04-19 23:34 52.67368 0.79495 7742 ft 387 kts 259°
2026-04-19 23:35 52.66856 0.75167 6992 ft 383 kts 259°
2026-04-19 23:35 52.66354 0.70884 6242 ft 379 kts 259°
2026-04-19 23:35 52.65853 0.66649 5490 ft 375 kts 259°
2026-04-19 23:35 52.65396 0.62725 4779 ft 352 kts 259°
2026-04-19 23:36 52.64964 0.58929 4029 ft 325 kts 259°
2026-04-19 23:36 52.64161 0.55651 3253 ft 316 kts 233°
2026-04-19 23:36 52.62505 0.53354 2558 ft 310 kts 210°
2026-04-19 23:36 52.60579 0.51757 2251 ft 309 kts 205°
2026-04-19 23:37 52.58610 0.50329 2128 ft 309 kts 203°
2026-04-19 23:37 52.56654 0.48979 2069 ft 308 kts 202°
2026-04-19 23:37 52.54669 0.47639 2040 ft 308 kts 202°
2026-04-19 23:37 52.52681 0.46309 2016 ft 308 kts 202°
2026-04-19 23:38 52.50696 0.44988 2016 ft 308 kts 202°
2026-04-19 23:38 52.48709 0.43669 2004 ft 308 kts 202°
2026-04-19 23:38 52.46810 0.42412 2008 ft 308 kts 202°
2026-04-19 23:38 52.44745 0.41765 1632 ft 309 kts 169°
2026-04-19 23:39 52.42815 0.43187 1450 ft 305 kts 142°
2026-04-19 23:39 52.41163 0.45402 1517 ft 308 kts 140°
2026-04-19 23:39 52.39527 0.47700 1532 ft 312 kts 129°
2026-04-19 23:39 52.39030 0.51007 1524 ft 316 kts 69°
2026-04-19 23:40 52.40102 0.54087 1432 ft 306 kts 55°
2026-04-19 23:40 52.39883 0.56722 1472 ft 273 kts 186°
2026-04-19 23:40 52.38704 0.54855 1541 ft 216 kts 236°
2026-04-19 23:40 52.37947 0.53048 1504 ft 194 kts 236°
2026-04-19 23:41 52.38303 0.51203 1004 ft 217 kts 355°
2026-04-19 23:41 52.39383 0.52331 370 ft 175 kts 57°
2026-04-19 23:41 52.40068 0.54008 58 ft 173 kts 55°
2026-04-19 23:41 52.40680 0.55475 36 ft 126 kts 56°
2026-04-19 23:42 52.41077 0.56420 38 ft 82 kts 56°
2026-04-19 23:42 52.41339 0.57081 38 ft 59 kts 56°
2026-04-19 23:42 52.41540 0.57562 38 ft 38 kts 56°
2026-04-19 23:42 52.41604 0.57727 38 ft 9 kts 77°
2026-04-19 23:43 52.41580 0.57798 38 ft 7 kts 147°
2026-04-19 23:43 52.41515 0.57821 36 ft 11 kts 194°
2026-04-19 23:43 52.41414 0.57777 37 ft 20 kts 195°
2026-04-19 23:43 52.41253 0.57706 42 ft 27 kts 195°
2026-04-19 23:44 52.41091 0.57634 48 ft 23 kts 194°
2026-04-19 23:44 52.40954 0.57576 50 ft 19 kts 195°
2026-04-19 23:44 52.40839 0.57525 48 ft 16 kts 195°
2026-04-19 23:44 52.40710 0.57468 45 ft 24 kts 194°
2026-04-19 23:45 52.40557 0.57403 46 ft 20 kts 195°
2026-04-19 23:45 52.40424 0.57344 50 ft 20 kts 195°
2026-04-19 23:45 52.40317 0.57281 50 ft 14 kts 212°
2026-04-19 23:45 52.40237 0.57193 48 ft 16 kts 215°
2026-04-19 23:46 52.40184 0.57059 45 ft 16 kts 258°
2026-04-19 23:46 52.40162 0.56831 44 ft 21 kts 261°
2026-04-19 23:46 52.40142 0.56614 43 ft 18 kts 261°
2026-04-19 23:46 52.40119 0.56396 43 ft 22 kts 261°
2026-04-19 23:47 52.40096 0.56155 42 ft 20 kts 262°
2026-04-19 23:47 52.40077 0.55948 40 ft 15 kts 261°
2026-04-19 23:47 52.40042 0.55883 38 ft 10 kts 174°
2026-04-19 23:47 52.40012 0.55820 37 ft 11 kts 261°
2026-04-19 23:48 52.40000 0.55698 37 ft 10 kts 261°
2026-04-19 23:48 52.39989 0.55583 35 ft 7 kts 261°
2026-04-19 23:48 52.39999 0.55547 35 ft 3 kts 346°
2026-04-19 23:48 52.40006 0.55545 35 ft 0 kts 348°